User: anonymous   Login
Location: Unspecified
(0.0000°N, 0.0000°E)
Time: 20:03:07
(UTC+02:00)
Language:

JASON 3 - Orbit

View from above orbital plane
View from above orbital plane
View from above satellite
View from above satellite

Ground track
Ground track

The orbit data is extracted from the following two-line orbital elements,

1 41240U 16002A   20227.44107804 -.00000040  00000-0  92904-4 0  9994
2 41240  66.0382 244.7021 0008324 266.0387  93.9676 12.80929632213982
Epoch (UTC): 14 August 2020 10:35:09
Eccentricity: 0.0008324
inclination: 66.0382°
perigee height: 1331 km
apogee height: 1344 km
right ascension of ascending node: 244.7021°
argument of perigee: 266.0387°
revolutions per day: 12.80929632
mean anomaly at epoch: 93.9676°
orbit number at epoch: 21398

The dashed part of the orbit path shows where the satellite is in the earth's shadow,  

DLR